Miscellaneous Local Product
Issued by NWS North Platte, NE

Home | Current Version | Previous Version | Text Only | Print | Product List | Glossary On
Versions: 1 2 3 4 5 6 7 8 9 10 11 12 13 14 15 16 17 18 19 20 21 22 23 24 25 26 27 28 29 30 31 32 33 34 35 36 37 38 39 40 41 42 43 44 45 46 47 48 49 50
872
AXUS43 KLBF 240710
MISLBF


WESTERN AND NORTH CENTRAL NEBRASKA HOURLY WEATHER ROUNDUP
NATIONAL WEATHER SERVICE NORTH PLATTE NE
200 AM CDT TUE APR 24 2018

NOTE: "FAIR" INDICATES FEW OR NO CLOUDS BELOW 12,000 FEET WITH NO
SIGNIFICANT WEATHER AND/OR OBSTRUCTIONS TO VISIBILITY.

NOTE: STATIONS NOT REPORTING VARIABLES SUCH AS SKY/WEATHER OR
PRESSURE ARE PROVIDED BY RAWS AND APRS NETWORKS AND ARE NOT UNDER
NATIONAL WEATHER SERVICE QUALITY CONTROL.

...OBSERVATIONS IN AND NEAR THE EASTERN PANHANDLE OF NEBRASKA...

CITY           SKY/WX    TMP DP  RH WIND       PRES   REMARKS
PINE RIDGE     CLOUDY    39  37  92 NW9G20    30.27R WCI  33
GORDON         CLOUDY    39  36  89 NW21G28   30.25R WCI  29
CHADRON        CLOUDY    39  34  82 NW16      30.30R WCI  30
ALLIANCE       CLOUDY    38  34  85 NW21G26   30.26R WCI  28
SIDNEY         CLOUDY    37  34  89 NW24G31   30.26R WCI  26
CRESCENT LAKE    N/A     38  34  85 NW16G23     N/A  WCI  29
$$

...OBSERVATIONS IN NORTHERN NEBRASKA AND FAR SOUTHERN SOUTH DAKOTA...

CITY           SKY/WX    TMP DP  RH WIND       PRES   REMARKS
WINNER         LGT RAIN  53  48  83 W8        30.14R
VALENTINE      LGT RAIN  48  44  86 W14       30.18R
AINSWORTH      LGT RAIN  53  49  87 NW14G21   30.16S
O`NEILL        CLOUDY    58  38  46 SE8       30.13S
THEDFORD       CLOUDY    50  47  90 NW6       30.19S
BROKEN BOW     CLOUDY    47  42  83 CALM      30.13S
ORD            CLOUDY    48  42  80 CALM      30.12S
ALBION         CLOUDY    56  38  52 NE6       30.15R HAZE
VALENTINE NWR    N/A     50  48  93 W12G18      N/A
HALSEY           N/A     53  48  83 NW9G20      N/A
BUTTE            N/A     53  39  60 E12         N/A
CHAMBERS         N/A     52  41  65 CALM        N/A
EWING            N/A     55  40  57 E3          N/A
$$

...OBSERVATIONS IN SOUTHWEST NEBRASKA AND FAR NORTHEAST COLORADO...

CITY           SKY/WX    TMP DP  RH WIND       PRES   REMARKS
WRAY           CLOUDY    46  46 100 N21G29    30.21R
HOLYOKE        CLOUDY    43  37  81 N21G33    30.23R
IMPERIAL       CLOUDY    49  48  97 NW15G22   30.18R
OGALLALA       CLOUDY    46  41  85 N26       30.19S
NORTH PLATTE   CLOUDY    52  43  71 S7        30.15S
MCCOOK         CLOUDY    50  41  71 W3        30.15R
LEXINGTON      CLOUDY    46  40  81 E3        30.14F
STAPLETON        N/A     50  46  84 CALM        N/A
GOTHENBURG       N/A     50  38  62 CALM        N/A
CALLAWAY         N/A     50  42  74 SE3         N/A
$$

...OBSERVATIONS IN CENTRAL LINCOLN COUNTY AREA...

CITY           SKY/WX    TMP DP  RH WIND       PRES   REMARKS
N.P. AIRPORT   CLOUDY    52  43  71 S7        30.15S
N.P. DOWNTOWN    N/A     54  44  67 CALM        N/A
N.P. SOUTHEAST   N/A     53  42  66 CALM        N/A
N.P. HILLCREST   N/A     53  46  77 N10         N/A
$$

...OBSERVATIONS ACROSS THE ROCKIES AND WESTERN HIGH PLAINS...

CITY           SKY/WX    TMP DP  RH WIND       PRES   REMARKS
RAPID CITY     LGT RAIN  36  33  89 NW30G43   30.28R WCI  23
SCOTTSBLUFF    CLOUDY    38  34  85 NW24G36   30.31S WCI  27
CHEYENNE       CLOUDY    31  29  92 MISG      30.30R
DENVER         CLOUDY    38  31  76 N16       30.30R WCI  29
BERTHOUD PASS  CLOUDY    25  14  63 W23G29    30.40R WCI  10
MONARCH PASS   PTCLDY    32  19  59 W26       30.47S WCI  18
ASPEN          CLOUDY    48  29  47 VRB5      30.27S
STEAMBOAT      CLOUDY    42  35  76 SE5       30.22S
LARAMIE        CLOUDY    31  29  92 N15       30.30R WCI  20
CASPER         CLOUDY    32  28  85 N13       30.41R WCI  22
$$

...OBSERVATIONS ACROSS THE NORTHERN PLAINS...

CITY           SKY/WX    TMP DP  RH WIND       PRES   REMARKS
BISMARCK       RAIN      41  37  86 N23G31    30.30R
FARGO          CLOUDY    50  39  66 N17G24    30.21R
PIERRE         CLOUDY    50  46  86 SW7       30.08R
SIOUX FALLS    CLOUDY    48  40  73 CALM      30.14R
$$

...OBSERVATIONS ACROSS THE CENTRAL AND SOUTHERN PLAINS...

CITY           SKY/WX    TMP DP  RH WIND       PRES   REMARKS
OMAHA          PTCLDY    47  34  60 NW6       30.13R
GRAND ISLAND   MOCLDY    51  42  71 CALM      30.15R
KANSAS CITY    CLEAR     54  31  41 N6        30.06R
WICHITA        PTCLDY    58  44  60 N3        30.07R
DODGE CITY     CLEAR     47  41  80 SE8       30.08R
OKLAHOMA CITY  PTCLDY    58  47  66 NE6       30.05S
DALLAS         CLEAR     59  52  77 CALM      30.02F
AMARILLO       CLEAR     54  42  64 SE18      30.06S
$$




USA.gov is the U.S. government's official web portal to all federal, state and local government web resources and services.